Year,Month,Day,Hour,Minute,Value (Times are PST for temperature in C)
2015,07,03,00,00,26.20
2015,07,03,00,01,26.20
2015,07,03,00,02,26.20
2015,07,03,00,03,26.20
2015,07,03,00,04,26.20
2015,07,03,00,05,26.20
2015,07,03,00,06,26.20
2015,07,03,00,07,26.20
2015,07,03,00,08,26.20
2015,07,03,00,09,26.30
2015,07,03,00,10,26.30
2015,07,03,00,11,26.30
2015,07,03,00,12,26.40
2015,07,03,00,13,26.40
2015,07,03,00,14,26.40
2015,07,03,00,15,26.40
2015,07,03,00,16,26.40
2015,07,03,00,17,26.40
2015,07,03,00,18,26.40
2015,07,03,00,19,26.40
2015,07,03,00,20,26.40
2015,07,03,00,21,26.40
2015,07,03,00,22,26.40
2015,07,03,00,23,26.50
2015,07,03,00,24,26.50
2015,07,03,00,25,26.50
2015,07,03,00,26,26.50
2015,07,03,00,27,26.50
2015,07,03,00,28,26.50
2015,07,03,00,29,26.40
2015,07,03,00,30,26.40
2015,07,03,00,31,26.40
2015,07,03,00,32,26.30
2015,07,03,00,33,26.30
2015,07,03,00,34,26.30
2015,07,03,00,35,26.40
2015,07,03,00,36,26.40
2015,07,03,00,37,26.40
2015,07,03,00,38,26.40
2015,07,03,00,39,26.40
2015,07,03,00,40,26.30
2015,07,03,00,41,26.20
2015,07,03,00,42,26.20
2015,07,03,00,43,26.00
2015,07,03,00,44,25.90
2015,07,03,00,45,25.90
2015,07,03,00,46,25.80
2015,07,03,00,47,25.80
2015,07,03,00,48,25.80
2015,07,03,00,49,25.80
2015,07,03,00,50,25.80
2015,07,03,00,51,25.80
2015,07,03,00,52,25.80
2015,07,03,00,53,25.90
2015,07,03,00,54,25.90
2015,07,03,00,55,25.90
2015,07,03,00,56,25.80
2015,07,03,00,57,25.80
2015,07,03,00,58,25.80
2015,07,03,00,59,25.70
2015,07,03,01,00,25.70
2015,07,03,01,01,25.60
2015,07,03,01,02,25.60
2015,07,03,01,03,25.60
2015,07,03,01,04,25.60
2015,07,03,01,05,25.50
2015,07,03,01,06,25.40
2015,07,03,01,07,25.40
2015,07,03,01,08,25.40
2015,07,03,01,09,25.30
2015,07,03,01,10,25.30
2015,07,03,01,11,25.30
2015,07,03,01,12,25.30
2015,07,03,01,13,25.30
2015,07,03,01,14,25.30
2015,07,03,01,15,25.30
2015,07,03,01,16,25.30
2015,07,03,01,17,25.30
2015,07,03,01,18,25.30
2015,07,03,01,19,25.40
2015,07,03,01,20,25.40
2015,07,03,01,21,25.40
2015,07,03,01,22,25.40
2015,07,03,01,23,25.40
2015,07,03,01,24,25.40
2015,07,03,01,25,25.40
2015,07,03,01,26,25.40
2015,07,03,01,27,25.30
2015,07,03,01,28,25.30
2015,07,03,01,29,25.30
2015,07,03,01,30,25.20
2015,07,03,01,31,25.20
2015,07,03,01,32,25.20
2015,07,03,01,33,25.10
2015,07,03,01,34,25.10
2015,07,03,01,35,25.10
2015,07,03,01,36,25.00
2015,07,03,01,37,24.90
2015,07,03,01,38,24.90
2015,07,03,01,39,24.80
2015,07,03,01,40,24.70
2015,07,03,01,41,24.70
2015,07,03,01,42,24.60
2015,07,03,01,43,24.50
2015,07,03,01,44,24.50
2015,07,03,01,45,24.40
2015,07,03,01,46,24.40
2015,07,03,01,47,24.30
2015,07,03,01,48,24.30
2015,07,03,01,49,24.30
2015,07,03,01,50,24.30
2015,07,03,01,51,24.30
2015,07,03,01,52,24.20
2015,07,03,01,53,24.20
2015,07,03,01,54,24.30
2015,07,03,01,55,24.30
2015,07,03,01,56,24.30
2015,07,03,01,57,24.30
2015,07,03,01,58,24.30
2015,07,03,01,59,24.30
2015,07,03,02,00,24.30
2015,07,03,02,01,24.30
2015,07,03,02,02,24.30
2015,07,03,02,03,24.30
2015,07,03,02,04,24.30
2015,07,03,02,05,24.30
2015,07,03,02,06,24.30
2015,07,03,02,07,24.30
2015,07,03,02,08,24.20
2015,07,03,02,09,24.20
2015,07,03,02,10,24.10
2015,07,03,02,11,24.00
2015,07,03,02,12,23.90
2015,07,03,02,13,23.80
2015,07,03,02,14,23.80
2015,07,03,02,15,23.70
2015,07,03,02,16,23.60
2015,07,03,02,17,23.50
2015,07,03,02,18,23.40
2015,07,03,02,19,23.20
2015,07,03,02,20,23.20
2015,07,03,02,21,23.10
2015,07,03,02,22,23.10
2015,07,03,02,23,23.10
2015,07,03,02,24,23.10
2015,07,03,02,25,23.10
2015,07,03,02,26,23.10
2015,07,03,02,27,23.10
2015,07,03,02,28,23.10
2015,07,03,02,29,23.10
2015,07,03,02,30,23.10
2015,07,03,02,31,23.00
2015,07,03,02,32,22.80
2015,07,03,02,33,22.70
2015,07,03,02,34,22.60
2015,07,03,02,35,22.60
2015,07,03,02,36,22.60
2015,07,03,02,37,22.50
2015,07,03,02,38,22.40
2015,07,03,02,39,22.40
2015,07,03,02,40,22.30
2015,07,03,02,41,22.30
2015,07,03,02,42,22.30
2015,07,03,02,43,22.20
2015,07,03,02,44,22.20
2015,07,03,02,45,22.10
2015,07,03,02,46,22.00
2015,07,03,02,47,21.90
2015,07,03,02,48,21.80
2015,07,03,02,49,21.70
2015,07,03,02,50,21.60
2015,07,03,02,51,21.60
2015,07,03,02,52,21.60
2015,07,03,02,53,21.60
2015,07,03,02,54,21.70
2015,07,03,02,55,21.80
2015,07,03,02,56,21.90
2015,07,03,02,57,22.10
2015,07,03,02,58,22.20
2015,07,03,02,59,22.30
2015,07,03,03,00,22.40
2015,07,03,03,01,22.50
2015,07,03,03,02,22.60
2015,07,03,03,03,22.80
2015,07,03,03,04,22.90
2015,07,03,03,05,22.90
2015,07,03,03,06,23.00
2015,07,03,03,07,23.10
2015,07,03,03,08,23.10
2015,07,03,03,09,23.20
2015,07,03,03,10,23.20
2015,07,03,03,11,23.20
2015,07,03,03,12,23.20
2015,07,03,03,13,23.20
2015,07,03,03,14,23.10
2015,07,03,03,15,23.00
2015,07,03,03,16,22.90
2015,07,03,03,17,22.90
2015,07,03,03,18,22.80
2015,07,03,03,19,22.60
2015,07,03,03,20,22.60
2015,07,03,03,21,22.50
2015,07,03,03,22,22.40
2015,07,03,03,23,22.40
2015,07,03,03,24,22.40
2015,07,03,03,25,22.30
2015,07,03,03,26,22.30
2015,07,03,03,27,22.30
2015,07,03,03,28,22.20
2015,07,03,03,29,22.20
2015,07,03,03,30,22.20
2015,07,03,03,31,22.20
2015,07,03,03,32,22.10
2015,07,03,03,33,22.10
2015,07,03,03,34,22.10
2015,07,03,03,35,22.20
2015,07,03,03,36,22.20
2015,07,03,03,37,22.30
2015,07,03,03,38,22.30
2015,07,03,03,39,22.30
2015,07,03,03,40,22.30
2015,07,03,03,41,22.30
2015,07,03,03,42,22.30
2015,07,03,03,43,22.30
2015,07,03,03,44,22.20
2015,07,03,03,45,22.10
2015,07,03,03,46,22.00
2015,07,03,03,47,21.90
2015,07,03,03,48,21.90
2015,07,03,03,49,21.90
2015,07,03,03,50,21.90
2015,07,03,03,51,21.90
2015,07,03,03,52,21.90
2015,07,03,03,53,21.90
2015,07,03,03,54,21.80
2015,07,03,03,55,21.80
2015,07,03,03,56,21.70
2015,07,03,03,57,21.70
2015,07,03,03,58,21.70
2015,07,03,03,59,21.70
2015,07,03,04,00,21.70
2015,07,03,04,01,21.60
2015,07,03,04,02,21.50
2015,07,03,04,03,21.30
2015,07,03,04,04,21.20
2015,07,03,04,05,21.10
2015,07,03,04,06,21.10
2015,07,03,04,07,21.10
2015,07,03,04,08,21.10
2015,07,03,04,09,21.10
2015,07,03,04,10,21.00
2015,07,03,04,11,20.90
2015,07,03,04,12,20.90
2015,07,03,04,13,20.90
2015,07,03,04,14,21.10
2015,07,03,04,15,21.20
2015,07,03,04,16,21.10
2015,07,03,04,17,21.00
2015,07,03,04,18,20.90
2015,07,03,04,19,20.80
2015,07,03,04,20,20.80
2015,07,03,04,21,20.70
2015,07,03,04,22,20.60
2015,07,03,04,23,20.50
2015,07,03,04,24,20.50
2015,07,03,04,25,20.40
2015,07,03,04,26,20.30
2015,07,03,04,27,20.30
2015,07,03,04,28,20.30
2015,07,03,04,29,20.20
2015,07,03,04,30,20.20
2015,07,03,04,31,20.20
2015,07,03,04,32,20.30
2015,07,03,04,33,20.20
2015,07,03,04,34,20.20
2015,07,03,04,35,20.20
2015,07,03,04,36,20.20
2015,07,03,04,37,20.20
2015,07,03,04,38,20.10
2015,07,03,04,39,20.10
2015,07,03,04,40,20.10
2015,07,03,04,41,20.10
2015,07,03,04,42,20.10
2015,07,03,04,43,20.20
2015,07,03,04,44,20.20
2015,07,03,04,45,20.20
2015,07,03,04,46,20.20
2015,07,03,04,47,20.20
2015,07,03,04,48,20.20
2015,07,03,04,49,20.10
2015,07,03,04,50,20.10
2015,07,03,04,51,20.10
2015,07,03,04,52,20.10
2015,07,03,04,53,20.10
2015,07,03,04,54,20.10
2015,07,03,04,55,20.10
2015,07,03,04,56,20.10
2015,07,03,04,57,20.10
2015,07,03,04,58,20.10
2015,07,03,04,59,20.10
2015,07,03,05,00,20.00
2015,07,03,05,01,20.00
2015,07,03,05,02,20.00
2015,07,03,05,03,20.00
2015,07,03,05,04,20.00
2015,07,03,05,05,20.00
2015,07,03,05,06,20.00
2015,07,03,05,07,20.10
2015,07,03,05,08,20.00
2015,07,03,05,09,20.00
2015,07,03,05,10,19.90
2015,07,03,05,11,19.90
2015,07,03,05,12,19.80
2015,07,03,05,13,19.80
2015,07,03,05,14,19.80
2015,07,03,05,15,19.70
2015,07,03,05,16,19.60
2015,07,03,05,17,19.60
2015,07,03,05,18,19.50
2015,07,03,05,19,19.50
2015,07,03,05,20,19.40
2015,07,03,05,21,19.40
2015,07,03,05,22,19.40
2015,07,03,05,23,19.40
2015,07,03,05,24,19.40
2015,07,03,05,25,19.30
2015,07,03,05,26,19.30
2015,07,03,05,27,19.30
2015,07,03,05,28,19.30
2015,07,03,05,29,19.30
2015,07,03,05,30,19.40
2015,07,03,05,31,19.40
2015,07,03,05,32,19.40
2015,07,03,05,33,19.40
2015,07,03,05,34,19.40
2015,07,03,05,35,19.40
2015,07,03,05,36,19.40
2015,07,03,05,37,19.40
2015,07,03,05,38,19.50
2015,07,03,05,39,19.50
2015,07,03,05,40,19.60
2015,07,03,05,41,19.70
2015,07,03,05,42,19.80
2015,07,03,05,43,19.90
2015,07,03,05,44,19.90
2015,07,03,05,45,20.00
2015,07,03,05,46,20.00
2015,07,03,05,47,20.00
2015,07,03,05,48,20.00
2015,07,03,05,49,20.00
2015,07,03,05,50,20.00
2015,07,03,05,51,20.00
2015,07,03,05,52,20.10
2015,07,03,05,53,20.10
2015,07,03,05,54,20.20
2015,07,03,05,55,20.20
2015,07,03,05,56,20.20
2015,07,03,05,57,20.30
2015,07,03,05,58,20.30
2015,07,03,05,59,20.40
2015,07,03,06,00,20.40
2015,07,03,06,01,20.40
2015,07,03,06,02,20.40
2015,07,03,06,03,20.40
2015,07,03,06,04,20.30
2015,07,03,06,05,20.30
2015,07,03,06,06,20.30
2015,07,03,06,07,20.30
2015,07,03,06,08,20.20
2015,07,03,06,09,20.20
2015,07,03,06,10,20.20
2015,07,03,06,11,20.20
2015,07,03,06,12,20.20
2015,07,03,06,13,20.20
2015,07,03,06,14,20.20
2015,07,03,06,15,20.20
2015,07,03,06,16,20.20
2015,07,03,06,17,20.20
2015,07,03,06,18,20.20
2015,07,03,06,19,20.20
2015,07,03,06,20,20.30
2015,07,03,06,21,20.30
2015,07,03,06,22,20.30
2015,07,03,06,23,20.40
2015,07,03,06,24,20.50
2015,07,03,06,25,20.60
2015,07,03,06,26,20.70
2015,07,03,06,27,20.70
2015,07,03,06,28,20.80
2015,07,03,06,29,20.80
2015,07,03,06,30,20.90
2015,07,03,06,31,21.00
2015,07,03,06,32,21.00
2015,07,03,06,33,21.10
2015,07,03,06,34,21.10
2015,07,03,06,35,21.10
2015,07,03,06,36,21.20
2015,07,03,06,37,21.20
2015,07,03,06,38,21.20
2015,07,03,06,39,21.30
2015,07,03,06,40,21.30
2015,07,03,06,41,21.40
2015,07,03,06,42,21.50
2015,07,03,06,43,21.60
2015,07,03,06,44,21.70
2015,07,03,06,45,21.80
2015,07,03,06,46,21.90
2015,07,03,06,47,21.90
2015,07,03,06,48,21.90
2015,07,03,06,49,21.90
2015,07,03,06,50,21.90
2015,07,03,06,51,21.90
2015,07,03,06,52,21.90
2015,07,03,06,53,21.90
2015,07,03,06,54,21.90
2015,07,03,06,55,21.80
2015,07,03,06,56,21.90
2015,07,03,06,57,21.90
2015,07,03,06,58,21.90
2015,07,03,06,59,22.00
2015,07,03,07,00,22.10
2015,07,03,07,01,22.20
2015,07,03,07,02,22.30
2015,07,03,07,03,22.40
2015,07,03,07,04,22.50
2015,07,03,07,05,22.50
2015,07,03,07,06,22.50
2015,07,03,07,07,22.50
2015,07,03,07,08,22.50
2015,07,03,07,09,22.50
2015,07,03,07,10,22.40
2015,07,03,07,11,22.40
2015,07,03,07,12,22.40
2015,07,03,07,13,22.40
2015,07,03,07,14,22.30
2015,07,03,07,15,22.30
2015,07,03,07,16,22.30
2015,07,03,07,17,22.30
2015,07,03,07,18,22.30
2015,07,03,07,19,22.30
2015,07,03,07,20,22.30
2015,07,03,07,21,22.30
2015,07,03,07,22,22.30
2015,07,03,07,23,22.30
2015,07,03,07,24,22.40
2015,07,03,07,25,22.40
2015,07,03,07,26,22.40
2015,07,03,07,27,22.40
2015,07,03,07,28,22.50
2015,07,03,07,29,22.50
2015,07,03,07,30,22.60
2015,07,03,07,31,22.60
2015,07,03,07,32,22.60
2015,07,03,07,33,22.60
2015,07,03,07,34,22.60
2015,07,03,07,35,22.60
2015,07,03,07,36,22.60
2015,07,03,07,37,22.50
2015,07,03,07,38,22.50
2015,07,03,07,39,22.50
2015,07,03,07,40,22.60
2015,07,03,07,41,22.60
2015,07,03,07,42,22.60
2015,07,03,07,43,22.60
2015,07,03,07,44,22.70
2015,07,03,07,45,22.80
2015,07,03,07,46,22.80
2015,07,03,07,47,22.90
2015,07,03,07,48,22.90
2015,07,03,07,49,23.00
2015,07,03,07,50,23.00
2015,07,03,07,51,23.10
2015,07,03,07,52,23.10
2015,07,03,07,53,23.10
2015,07,03,07,54,23.10
2015,07,03,07,55,23.10
2015,07,03,07,56,23.10
2015,07,03,07,57,23.20
2015,07,03,07,58,23.30
2015,07,03,07,59,23.30
2015,07,03,08,00,23.30
2015,07,03,08,01,23.40
2015,07,03,08,02,23.40
2015,07,03,08,03,23.50
2015,07,03,08,04,23.60
2015,07,03,08,05,23.60
2015,07,03,08,06,23.70
2015,07,03,08,07,23.80
2015,07,03,08,08,23.80
2015,07,03,08,09,23.90
2015,07,03,08,10,23.90
2015,07,03,08,11,23.90
2015,07,03,08,12,23.90
2015,07,03,08,13,23.90
2015,07,03,08,14,23.90
2015,07,03,08,15,23.90
2015,07,03,08,16,23.90
2015,07,03,08,17,24.00
2015,07,03,08,18,24.00
2015,07,03,08,19,24.10
2015,07,03,08,20,24.10
2015,07,03,08,21,24.20
2015,07,03,08,22,24.30
2015,07,03,08,23,24.30
2015,07,03,08,24,24.40
2015,07,03,08,25,24.30
2015,07,03,08,26,24.30
2015,07,03,08,27,24.30
2015,07,03,08,28,24.40
2015,07,03,08,29,24.40
2015,07,03,08,30,24.40
2015,07,03,08,31,24.40
2015,07,03,08,32,24.50
2015,07,03,08,33,24.50
2015,07,03,08,34,24.60
2015,07,03,08,35,24.60
2015,07,03,08,36,24.60
2015,07,03,08,37,24.70
2015,07,03,08,38,24.70
2015,07,03,08,39,24.70
2015,07,03,08,40,24.70
2015,07,03,08,41,24.80
2015,07,03,08,42,24.80
2015,07,03,08,43,24.80
2015,07,03,08,44,24.70
2015,07,03,08,45,24.80
2015,07,03,08,46,24.80
2015,07,03,08,47,24.80
2015,07,03,08,48,24.80
2015,07,03,08,49,24.80
2015,07,03,08,50,24.80
2015,07,03,08,51,24.90
2015,07,03,08,52,25.00
2015,07,03,08,53,25.00
2015,07,03,08,54,25.10
2015,07,03,08,55,25.10
2015,07,03,08,56,25.20
2015,07,03,08,57,25.30
2015,07,03,08,58,25.30
2015,07,03,08,59,25.30
2015,07,03,09,00,25.20
2015,07,03,09,01,25.20
2015,07,03,09,02,25.20
2015,07,03,09,03,25.10
2015,07,03,09,04,25.00
2015,07,03,09,05,24.90
2015,07,03,09,06,24.90
2015,07,03,09,07,24.90
2015,07,03,09,08,25.00
2015,07,03,09,09,25.00
2015,07,03,09,10,25.00
2015,07,03,09,11,25.00
2015,07,03,09,12,25.10
2015,07,03,09,13,25.00
2015,07,03,09,14,25.00
2015,07,03,09,15,25.10
2015,07,03,09,16,25.10
2015,07,03,09,17,25.10
2015,07,03,09,18,25.10
2015,07,03,09,19,25.20
2015,07,03,09,20,25.20
2015,07,03,09,21,25.30
2015,07,03,09,22,25.30
2015,07,03,09,23,25.40
2015,07,03,09,24,25.50
2015,07,03,09,25,25.60
2015,07,03,09,26,25.60
2015,07,03,09,27,25.60
2015,07,03,09,28,25.50
2015,07,03,09,29,25.50
2015,07,03,09,30,25.60
2015,07,03,09,31,25.60
2015,07,03,09,32,25.50
2015,07,03,09,33,25.50
2015,07,03,09,34,25.50
2015,07,03,09,35,25.60
2015,07,03,09,36,25.60
2015,07,03,09,37,25.60
2015,07,03,09,38,25.60
2015,07,03,09,39,25.60
2015,07,03,09,40,25.60
2015,07,03,09,41,25.60
2015,07,03,09,42,25.60
2015,07,03,09,43,25.70
2015,07,03,09,44,25.80
2015,07,03,09,45,25.80
2015,07,03,09,46,25.80
2015,07,03,09,47,25.70
2015,07,03,09,48,25.70
2015,07,03,09,49,25.70
2015,07,03,09,50,25.70
2015,07,03,09,51,25.70
2015,07,03,09,52,25.70
2015,07,03,09,53,25.70
2015,07,03,09,54,25.60
2015,07,03,09,55,25.60
2015,07,03,09,56,25.60
2015,07,03,09,57,25.60
2015,07,03,09,58,25.60
2015,07,03,09,59,25.70
2015,07,03,10,00,25.80
2015,07,03,10,01,25.90
2015,07,03,10,02,26.00
2015,07,03,10,03,26.20
2015,07,03,10,04,26.20
2015,07,03,10,05,26.30
2015,07,03,10,06,26.30
2015,07,03,10,07,26.30
2015,07,03,10,08,26.30
2015,07,03,10,09,26.40
2015,07,03,10,10,26.40
2015,07,03,10,11,26.50
2015,07,03,10,12,26.50
2015,07,03,10,13,26.50
2015,07,03,10,14,26.50
2015,07,03,10,15,26.40
2015,07,03,10,16,26.40
2015,07,03,10,17,26.40
2015,07,03,10,18,26.40
2015,07,03,10,19,26.40
2015,07,03,10,20,26.40
2015,07,03,10,21,26.40
2015,07,03,10,22,26.40
2015,07,03,10,23,26.50
2015,07,03,10,24,26.60
2015,07,03,10,25,26.60
2015,07,03,10,26,26.70
2015,07,03,10,27,26.70
2015,07,03,10,28,26.80
2015,07,03,10,29,26.80
2015,07,03,10,30,26.80
2015,07,03,10,31,26.90
2015,07,03,10,32,26.90
2015,07,03,10,33,26.90
2015,07,03,10,34,26.90
2015,07,03,10,35,27.00
2015,07,03,10,36,27.00
2015,07,03,10,37,27.00
2015,07,03,10,38,27.00
2015,07,03,10,39,27.00
2015,07,03,10,40,27.00
2015,07,03,10,41,27.00
2015,07,03,10,42,27.00
2015,07,03,10,43,27.00
2015,07,03,10,44,27.10
2015,07,03,10,45,27.10
2015,07,03,10,46,27.10
2015,07,03,10,47,27.10
2015,07,03,10,48,27.10
2015,07,03,10,49,27.10
2015,07,03,10,50,27.10
2015,07,03,10,51,27.20
2015,07,03,10,52,27.20
2015,07,03,10,53,27.00
2015,07,03,10,54,26.90
2015,07,03,10,55,26.80
2015,07,03,10,56,26.90
2015,07,03,10,57,27.00
2015,07,03,10,58,27.10
2015,07,03,10,59,27.10
2015,07,03,11,00,27.20
2015,07,03,11,01,27.20
2015,07,03,11,02,27.20
2015,07,03,11,03,27.20
2015,07,03,11,04,27.20
2015,07,03,11,05,27.20
2015,07,03,11,06,27.20
2015,07,03,11,07,27.20
2015,07,03,11,08,27.20
2015,07,03,11,09,27.30
2015,07,03,11,10,27.30
2015,07,03,11,11,27.40
2015,07,03,11,12,27.50
2015,07,03,11,13,27.60
2015,07,03,11,14,27.60
2015,07,03,11,15,27.80
2015,07,03,11,16,27.80
2015,07,03,11,17,27.80
2015,07,03,11,18,27.80
2015,07,03,11,19,27.90
2015,07,03,11,20,27.90
2015,07,03,11,21,27.90
2015,07,03,11,22,27.80
2015,07,03,11,23,27.80
2015,07,03,11,24,27.70
2015,07,03,11,25,27.70
2015,07,03,11,26,27.70
2015,07,03,11,27,27.70
2015,07,03,11,28,27.70
2015,07,03,11,29,27.70
2015,07,03,11,30,27.80
2015,07,03,11,31,27.90
2015,07,03,11,32,27.90
2015,07,03,11,33,27.90
2015,07,03,11,34,27.90
2015,07,03,11,35,27.80
2015,07,03,11,36,27.80
2015,07,03,11,37,27.90
2015,07,03,11,38,27.90
2015,07,03,11,39,27.90
2015,07,03,11,40,27.90
2015,07,03,11,41,27.90
2015,07,03,11,42,28.00
2015,07,03,11,43,28.00
2015,07,03,11,44,28.10
2015,07,03,11,45,28.10
2015,07,03,11,46,28.20
2015,07,03,11,47,28.20
2015,07,03,11,48,28.10
2015,07,03,11,49,27.90
2015,07,03,11,50,27.80
2015,07,03,11,51,27.80
2015,07,03,11,52,27.80
2015,07,03,11,53,27.80
2015,07,03,11,54,28.00
2015,07,03,11,55,28.10
2015,07,03,11,56,28.20
2015,07,03,11,57,28.30
2015,07,03,11,58,28.50
2015,07,03,11,59,28.60
2015,07,03,12,00,28.70
2015,07,03,12,01,28.70
2015,07,03,12,02,28.60
2015,07,03,12,03,28.50
2015,07,03,12,04,28.40
2015,07,03,12,05,28.40
2015,07,03,12,06,28.30
2015,07,03,12,07,28.30
2015,07,03,12,08,28.20
2015,07,03,12,09,28.20
2015,07,03,12,10,28.20
2015,07,03,12,11,28.20
2015,07,03,12,12,28.20
2015,07,03,12,13,28.30
2015,07,03,12,14,28.30
2015,07,03,12,15,28.20
2015,07,03,12,16,28.10
2015,07,03,12,17,28.10
2015,07,03,12,18,28.10
2015,07,03,12,19,28.20
2015,07,03,12,20,28.20
2015,07,03,12,21,28.30
2015,07,03,12,22,28.30
2015,07,03,12,23,28.40
2015,07,03,12,24,28.40
2015,07,03,12,25,28.50
2015,07,03,12,26,28.50
2015,07,03,12,27,28.50
2015,07,03,12,28,28.50
2015,07,03,12,29,28.50
2015,07,03,12,30,28.50
2015,07,03,12,31,28.50
2015,07,03,12,32,28.40
2015,07,03,12,33,28.50
2015,07,03,12,34,28.60
2015,07,03,12,35,28.60
2015,07,03,12,36,28.60
2015,07,03,12,37,28.50
2015,07,03,12,38,28.40
2015,07,03,12,39,28.40
2015,07,03,12,40,28.40
2015,07,03,12,41,28.40
2015,07,03,12,42,28.40
2015,07,03,12,43,28.50
2015,07,03,12,44,28.60
2015,07,03,12,45,28.70
2015,07,03,12,46,28.70
2015,07,03,12,47,28.70
2015,07,03,12,48,28.70
2015,07,03,12,49,28.70
2015,07,03,12,50,28.70
2015,07,03,12,51,28.70
2015,07,03,12,52,28.70
2015,07,03,12,53,28.70
2015,07,03,12,54,28.60
2015,07,03,12,55,28.60
2015,07,03,12,56,28.60
2015,07,03,12,57,28.60
2015,07,03,12,58,28.70
2015,07,03,12,59,28.70
2015,07,03,13,00,28.70
2015,07,03,13,01,28.80
2015,07,03,13,02,28.90
2015,07,03,13,03,28.90
2015,07,03,13,04,28.80
2015,07,03,13,05,28.80
2015,07,03,13,06,28.90
2015,07,03,13,07,28.90
2015,07,03,13,08,29.00
2015,07,03,13,09,29.10
2015,07,03,13,10,29.10
2015,07,03,13,11,29.10
2015,07,03,13,12,29.10
2015,07,03,13,13,29.00
2015,07,03,13,14,28.90
2015,07,03,13,15,28.90
2015,07,03,13,16,28.90
2015,07,03,13,17,29.00
2015,07,03,13,18,29.00
2015,07,03,13,19,29.00
2015,07,03,13,20,29.00
2015,07,03,13,21,29.10
2015,07,03,13,22,29.20
2015,07,03,13,23,29.20
2015,07,03,13,24,29.20
2015,07,03,13,25,29.30
2015,07,03,13,26,29.40
2015,07,03,13,27,29.50
2015,07,03,13,28,29.60
2015,07,03,13,29,29.70
2015,07,03,13,30,29.80
2015,07,03,13,31,29.90
2015,07,03,13,32,30.00
2015,07,03,13,33,30.00
2015,07,03,13,34,30.10
2015,07,03,13,35,30.10
2015,07,03,13,36,30.10
2015,07,03,13,37,30.10
2015,07,03,13,38,30.10
2015,07,03,13,39,30.00
2015,07,03,13,40,29.90
2015,07,03,13,41,29.80
2015,07,03,13,42,29.80
2015,07,03,13,43,29.70
2015,07,03,13,44,29.70
2015,07,03,13,45,29.70
2015,07,03,13,46,29.60
2015,07,03,13,47,29.50
2015,07,03,13,48,29.50
2015,07,03,13,49,29.50
2015,07,03,13,50,29.60
2015,07,03,13,51,29.60
2015,07,03,13,52,29.60
2015,07,03,13,53,29.50
2015,07,03,13,54,29.40
2015,07,03,13,55,29.50
2015,07,03,13,56,29.50
2015,07,03,13,57,29.60
2015,07,03,13,58,29.60
2015,07,03,13,59,29.60
2015,07,03,14,00,29.60
2015,07,03,14,01,29.70
2015,07,03,14,02,29.70
2015,07,03,14,03,29.80
2015,07,03,14,04,29.90
2015,07,03,14,05,30.00
2015,07,03,14,06,30.10
2015,07,03,14,07,30.20
2015,07,03,14,08,30.20
2015,07,03,14,09,30.10
2015,07,03,14,10,29.90
2015,07,03,14,11,29.80
2015,07,03,14,12,29.80
2015,07,03,14,13,29.80
2015,07,03,14,14,29.90
2015,07,03,14,15,29.90
2015,07,03,14,16,30.00
2015,07,03,14,17,30.00
2015,07,03,14,18,30.00
2015,07,03,14,19,30.10
2015,07,03,14,20,30.10
2015,07,03,14,21,30.00
2015,07,03,14,22,30.10
2015,07,03,14,23,30.20
2015,07,03,14,24,30.30
2015,07,03,14,25,30.40
2015,07,03,14,26,30.50
2015,07,03,14,27,30.50
2015,07,03,14,28,30.60
2015,07,03,14,29,30.60
2015,07,03,14,30,30.60
2015,07,03,14,31,30.60
2015,07,03,14,32,30.60
2015,07,03,14,33,30.60
2015,07,03,14,34,30.60
2015,07,03,14,35,30.60
2015,07,03,14,36,30.60
2015,07,03,14,37,30.50
2015,07,03,14,38,30.50
2015,07,03,14,39,30.50
2015,07,03,14,40,30.50
2015,07,03,14,41,30.60
2015,07,03,14,42,30.60
2015,07,03,14,43,30.70
2015,07,03,14,44,30.80
2015,07,03,14,45,30.70
2015,07,03,14,46,30.60
2015,07,03,14,47,30.50
2015,07,03,14,48,30.40
2015,07,03,14,49,30.30
2015,07,03,14,50,30.20
2015,07,03,14,51,30.10
2015,07,03,14,52,30.00
2015,07,03,14,53,30.00
2015,07,03,14,54,30.10
2015,07,03,14,55,30.20
2015,07,03,14,56,30.20
2015,07,03,14,57,30.30
2015,07,03,14,58,30.20
2015,07,03,14,59,30.20
2015,07,03,15,00,30.30
2015,07,03,15,01,30.30
2015,07,03,15,02,30.40
2015,07,03,15,03,30.50
2015,07,03,15,04,30.60
2015,07,03,15,05,30.70
2015,07,03,15,06,30.70
2015,07,03,15,07,30.80
2015,07,03,15,08,30.80
2015,07,03,15,09,30.80
2015,07,03,15,10,30.80
2015,07,03,15,11,30.80
2015,07,03,15,12,30.90
2015,07,03,15,13,30.90
2015,07,03,15,14,31.00
2015,07,03,15,15,31.00
2015,07,03,15,16,30.90
2015,07,03,15,17,30.80
2015,07,03,15,18,30.70
2015,07,03,15,19,30.80
2015,07,03,15,20,30.80
2015,07,03,15,21,31.00
2015,07,03,15,22,31.10
2015,07,03,15,23,31.20
2015,07,03,15,24,31.10
2015,07,03,15,25,30.90
2015,07,03,15,26,30.70
2015,07,03,15,27,30.60
2015,07,03,15,28,30.50
2015,07,03,15,29,30.40
2015,07,03,15,30,30.50
2015,07,03,15,31,30.60
2015,07,03,15,32,30.60
2015,07,03,15,33,30.70
2015,07,03,15,34,30.70
2015,07,03,15,35,30.70
2015,07,03,15,36,30.80
2015,07,03,15,37,30.90
2015,07,03,15,38,30.90
2015,07,03,15,39,30.90
2015,07,03,15,40,30.90
2015,07,03,15,41,30.90
2015,07,03,15,42,30.90
2015,07,03,15,43,30.80
2015,07,03,15,44,30.80
2015,07,03,15,45,30.80
2015,07,03,15,46,30.80
2015,07,03,15,47,30.80
2015,07,03,15,48,30.80
2015,07,03,15,49,30.80
2015,07,03,15,50,30.80
2015,07,03,15,51,30.80
2015,07,03,15,52,30.70
2015,07,03,15,53,30.70
2015,07,03,15,54,30.70
2015,07,03,15,55,30.70
2015,07,03,15,56,30.70
2015,07,03,15,57,30.80
2015,07,03,15,58,30.90
2015,07,03,15,59,31.00
2015,07,03,16,00,31.20
2015,07,03,16,01,31.20
2015,07,03,16,02,31.30
2015,07,03,16,03,31.30
2015,07,03,16,04,31.30
2015,07,03,16,05,31.40
2015,07,03,16,06,31.40
2015,07,03,16,07,31.40
2015,07,03,16,08,31.50
2015,07,03,16,09,31.50
2015,07,03,16,10,31.50
2015,07,03,16,11,31.50
2015,07,03,16,12,31.50
2015,07,03,16,13,31.40
2015,07,03,16,14,31.30
2015,07,03,16,15,31.30
2015,07,03,16,16,31.30
2015,07,03,16,17,31.30
2015,07,03,16,18,31.30
2015,07,03,16,19,31.30
2015,07,03,16,20,31.30
2015,07,03,16,21,31.30
2015,07,03,16,22,31.30
2015,07,03,16,23,31.30
2015,07,03,16,24,31.40
2015,07,03,16,25,31.40
2015,07,03,16,26,31.40
2015,07,03,16,27,31.40
2015,07,03,16,28,31.30
2015,07,03,16,29,31.30
2015,07,03,16,30,31.30
2015,07,03,16,31,31.30
2015,07,03,16,32,31.30
2015,07,03,16,33,31.30
2015,07,03,16,34,31.30
2015,07,03,16,35,31.30
2015,07,03,16,36,31.40
2015,07,03,16,37,31.40
2015,07,03,16,38,31.40
2015,07,03,16,39,31.30
2015,07,03,16,40,31.30
2015,07,03,16,41,31.40
2015,07,03,16,42,31.40
2015,07,03,16,43,31.40
2015,07,03,16,44,31.30
2015,07,03,16,45,31.30
2015,07,03,16,46,31.30
2015,07,03,16,47,31.20
2015,07,03,16,48,31.20
2015,07,03,16,49,31.20
2015,07,03,16,50,31.10
2015,07,03,16,51,31.00
2015,07,03,16,52,31.00
2015,07,03,16,53,31.00
2015,07,03,16,54,31.10
2015,07,03,16,55,31.10
2015,07,03,16,56,31.10
2015,07,03,16,57,31.10
2015,07,03,16,58,31.10
2015,07,03,16,59,31.20
2015,07,03,17,00,31.20
2015,07,03,17,01,31.20
2015,07,03,17,02,31.20
2015,07,03,17,03,31.20
2015,07,03,17,04,31.20
2015,07,03,17,05,31.20
2015,07,03,17,06,31.20
2015,07,03,17,07,31.20
2015,07,03,17,08,31.30
2015,07,03,17,09,31.30
2015,07,03,17,10,31.30
2015,07,03,17,11,31.30
2015,07,03,17,12,31.20
2015,07,03,17,13,31.20
2015,07,03,17,14,31.20
2015,07,03,17,15,31.30
2015,07,03,17,16,31.30
2015,07,03,17,17,31.20
2015,07,03,17,18,31.20
2015,07,03,17,19,31.30